Location: Allisons_Woods
(35.8920°N, 81.8170°W)
Time: 18:05:01
(UTC-05:00)

Daily predictions for brighter satellites

Satellite Brightness Start Highest point End
(mag) Time Altitude Azimuth Time Altitude Azimuth Time Altitude Azimuth
Cosmos 1725 Rocket 4.0 17:29:59 10° S 17:36:15 73° E 17:42:30 10° N
CENTAUR R/B 2.9 17:31:14 10° SW 17:37:06 66° NW 17:43:48 10° NNE
OAO 3 Copernicus 4.5 17:33:28 10° WSW 17:38:33 76° S 17:43:38 10° E
Cosmos 371 Rocket 3.2 17:36:08 10° NNW 17:40:58 79° ENE 17:45:45 10° SSE
Cosmos 1437 2.8 17:39:34 10° S 17:42:39 53° E 17:45:46 10° NNE
Cosmos 1461 3.2 17:38:25 10° NNW 17:43:08 83° ENE 17:47:52 10° SSE
OE (NEXTSAT) 4.3 17:39:45 10° NW 17:43:16 71° NNE 17:46:47 10° ESE
Cosmos 468 Rocket 4.0 17:43:27 10° N 17:48:34 58° ENE 17:53:36 10° SSE
ERS-2 3.4 17:46:07 10° ESE 17:48:54 21° ENE 17:51:42 10° NNE
Cosmos 1844 Rocket 3.5 17:43:53 10° SW 17:49:23 53° WNW 17:54:53 10° NNE
ERBS 3.7 17:47:42 10° NNW 17:50:24 21° NE 17:53:06 10° E
COSMOS 2406 3.2 17:45:04 10° NNW 17:50:49 78° ENE 17:56:31 10° SSE
COSMOS 2455 3.0 17:47:03 10° SSW 17:53:02 84° WNW 17:59:06 10° NNE
CZ-2C R/B 3.8 17:48:44 10° NNE 17:53:09 57° E 17:57:37 10° S
Tsikada Rocket 3.9 17:48:11 10° N 17:54:20 76° E 18:00:30 10° S
Timation 1 Rocket 4.4 17:51:21 10° SSW 17:57:20 82° ESE 18:03:22 10° NNE
YAOGAN 1 2.9 17:57:27 10° SE 18:01:31 41° ENE 18:05:35 10° N
COSMO-SKYMED 1 3.2 17:58:41 10° NNE 18:02:42 36° E 18:06:41 10° SSE
BREEZE-M R/B 4.1 18:03:11 10° NNW 18:05:22 19° NE 18:07:11 14° ENE
CZ-4 R/B 1.2 18:01:40 10° SSE 18:05:32 68° ENE 18:09:21 10° N
CSL-04 Debris 4.4 18:00:58 10° S 18:06:24 80° WSW 18:11:50 10° NNW
Meteor 1-26 Rocket 4.2 18:02:53 10° S 18:08:30 90° WSW 18:14:04 10° N
Centaur D AC-28 3.6 18:06:11 10° SW 18:10:08 39° SSE 18:21:43 11° E
Cosmos 1763 Rocket 3.6 18:05:18 10° N 18:10:23 53° ENE 18:15:23 10° SSE
USA 116 3.9 18:07:11 10° NNE 18:11:43 89° WNW 18:15:39 10° SSW
FENGYUN 3A 4.4 18:07:56 10° SE 18:12:31 29° ENE 18:17:07 10° N
Cosmos 2346 Rocket 4.4 18:07:10 10° N 18:13:19 77° E 18:19:30 10° S
Cosmos 2297 4.4 18:09:14 10° SSE 18:14:15 33° ESE 18:18:48 12° NE
ALOS 3.1 18:12:05 10° SE 18:16:05 29° ENE 18:20:05 10° NNE
Cosmos 1814 Rocket 4.0 18:14:00 10° NNW 18:19:22 74° ENE 18:24:42 10° SSE
Cosmos 1833 Rocket 3.7 18:15:30 10° N 18:20:00 24° ENE 18:23:09 15° E
Cosmos 2278 Rocket 2.3 18:15:29 10° SSW 18:21:08 82° WNW 18:26:51 10° NNE
Cosmos 1503 Rocket 4.4 18:17:29 10° S 18:22:24 41° ESE 18:26:49 13° NE
Cosmos 1703 Rocket 3.6 18:18:45 10° S 18:23:09 61° E 18:27:34 10° NNE
SL-27 R/B 3.2 18:21:57 10° N 18:24:51 27° ENE 18:25:00 27° ENE
Centaur D AC-29 3.5 18:19:49 10° W 18:26:03 24° SSW 18:29:11 10° SSE
SMAP 4.0 18:21:40 10° S 18:26:10 51° W 18:30:43 10° NNW
Ariane Rocket 4.2 18:24:52 10° S 18:29:43 45° W 18:34:36 10° NNW
Cosmos 1464 Rocket 4.1 18:24:41 10° SSE 18:30:32 50° E 18:36:25 10° NNE
Cosmos 1633 2.8 18:28:59 10° N 18:32:31 43° E 18:36:01 10° SSE
SKYMED 3 4.5 18:28:21 10° NNE 18:32:43 84° E 18:37:03 10° S
Okean 2 Rocket 3.9 18:30:11 10° NNE 18:34:07 29° ENE 18:38:02 10° SE
Cosmos 1606 2.6 18:37:29 10° S 18:41:15 89° SE 18:45:02 10° N
USA 234 3.4 18:36:48 14° NE 18:42:27 74° NW 18:48:57 10° SW
Cosmos 540 Rocket 3.9 18:37:56 10° N 18:42:46 39° ENE 18:46:03 18° SE
Cosmos 841 Rocket 3.4 18:38:48 10° NNW 18:44:07 82° ENE 18:49:22 10° SSE
EO 1 Del DPAF 3.7 18:42:46 10° N 18:46:33 62° WNW 18:50:18 10° SSW
Meteor 2-6 Rocket 4.0 18:42:53 10° S 18:48:14 68° E 18:53:42 10° NNE
Cosmos 1782 2.9 18:45:03 10° S 18:49:04 75° W 18:53:06 10° N
Atlas 2A Centaur Rocket 4.0 18:32:29 10° WSW 18:50:36 42° S 18:53:42 21° SE
SKYMED 2 4.1 18:46:29 10° N 18:50:45 59° WNW 18:55:00 10° SSW
Cosmos 1908 Rocket 4.1 18:47:25 10° NNW 18:51:41 59° W 18:55:56 10° S
SPOT 3 Rocket 3.5 18:48:29 10° SSE 18:53:42 85° ENE 18:58:57 10° NNW
BREEZE-M DEB (TANK) 3.6 18:54:52 10° W 18:56:41 26° NNW 18:56:41 26° NNW
Sich 1 Rocket 4.1 18:54:49 10° NNW 18:59:11 60° W 19:03:33 10° S
Cosmos 1354 Rocket 4.0 18:54:22 10° SSW 18:59:39 87° WNW 19:03:33 19° NNE
CZ-4C R/B 3.8 18:56:27 10° N 19:02:17 27° NE 19:02:17 27° NE
NOAA 12 4.0 18:58:02 10° SSE 19:03:22 90° WSW 19:08:42 10° NNW
Cosmos 2082 Rocket 2.2 18:58:25 10° NNW 19:04:00 55° ENE 19:05:55 38° ESE
FengYun 1-2 T 4.3 19:00:10 10° SE 19:05:25 48° ENE 19:10:43 10° N
Cosmos 405 Rocket 2.7 19:06:38 10° S 19:10:03 69° S 19:10:03 69° S
Meteor 1-27 Rocket 3.7 19:06:16 10° S 19:12:04 70° E 19:15:39 25° NNE
OAO 3 Copernicus 4.2 19:17:59 10° W 19:23:04 75° S 19:23:16 73° SSE
USA 229 DEB 4.4 19:20:22 10° S 19:24:53 34° SE 19:24:53 34° SE
USA 229 4.4 19:20:30 10° S 19:24:55 33° SE 19:24:55 33° SE
ERBS 4.3 19:24:02 10° WNW 19:26:58 27° SW 19:27:00 27° SW
Thor Agena Rocket 3.5 19:30:42 71° N 19:31:14 82° WNW 19:36:21 10° SSW
OAO 3 Rocket 4.4 19:34:09 10° SW 19:37:33 36° SSW 19:37:33 36° SSW
Nadezhda 4 Rocket 3.9 19:43:57 10° N 19:50:05 79° W 19:56:10 10° S
Meteor 1-11 Rocket 4.0 19:46:40 10° NNW 19:52:29 67° W 19:58:07 10° S
ALOS 4.5 19:49:41 10° SSW 19:53:27 24° W 19:57:14 10° NW
Cosmos 1833 Rocket 3.7 19:58:48 10° NW 20:04:03 42° WSW 20:05:02 39° SW
CZ-4C R/B 4.3 20:44:11 10° NW 20:47:31 30° NW 20:47:31 30° NW
